Flag for U.S.A. Weather past 2 weeks in Petersburg, Indiana, U.S.A.

Now
79 °F

Partly sunny.


Feels Like: 81 °F
Forecast: 69 / 79 °F
Wind: No wind

Location: Huntingburg Airport

Current Time: Jul 2, 2015 at 5:38:30 PM

Latest Report: Jul 2, 2015 at 4:55 PM


Visibility: 10 mi

Pressure: 29.85 "Hg

Humidity: 74%

Dew point: 70 °F

Location of PetersburgLocation

Historic Weather in Petersburg — Graph

°F

Petersburg temperature yesterday

Maximum temperature yesterday: 81 °F (at 6:35 PM)
Minimum temperature yesterday: 64 °F (at 6:35 AM)
Average temperature yesterday: 72 °F

Past Weeks' High & Low Weather Summary

 TemperatureHumidityPressure
High88 °F (Jun 18, 3:15 PM)94% (Jun 18, 7:35 AM)30.19 "Hg (Jun 18, 7:35 AM)
Low54 °F (Jun 28, 6:35 AM)42% (Jun 28, 12:35 PM)29.67 "Hg (Jun 20, 4:55 AM)
Average74 °F79%29.96 "Hg
* Reported Jun 17 4:15 PM — Jul 2 4:35 PM, Petersburg, Weather by CustomWeather, © 2015

Note: Actual official high and low records may vary slightly from our data, if they occured in-between our weather recording intervals... More about our weather records

Advertising

Petersburg weather history for previous 24 hours

 ConditionsComfort  
Time TempWeatherWind HumidityBarometerVisibility
4:35 PM
Thu, Jul 2
79 °FScattered clouds.No wind74%29.85 "Hg8 mi
4:15 PM77 °FScattered clouds.3 mph79%29.85 "Hg10 mi
3:55 PM75 °FScattered clouds.No wind83%29.86 "Hg10 mi
3:35 PM75 °FBroken clouds.5 mph78%29.87 "Hg10 mi
3:15 PM75 °FBroken clouds.No wind78%29.87 "Hg10 mi
2:55 PM73 °FOvercast.3 mph89%29.87 "Hg10 mi
2:35 PM73 °FBroken clouds.6 mph83%29.88 "Hg10 mi
2:15 PM73 °FBroken clouds.6 mph83%29.88 "Hg5 mi
1:55 PM75 °FCloudy.7 mph78%29.88 "Hg10 mi
1:35 PM77 °FMostly cloudy.7 mph74%29.88 "Hg10 mi
1:15 PM75 °FMore clouds than sun.8 mph78%29.88 "Hg10 mi
12:55 PM73 °FMostly cloudy.8 mph78%29.89 "Hg10 mi
12:35 PM73 °FOvercast.14 mph83%29.89 "Hg10 mi
12:15 PM73 °FOvercast.10 mph78%29.89 "Hg10 mi
11:55 AM73 °FBroken clouds.9 mph78%29.89 "Hg10 mi
11:35 AM73 °FMore clouds than sun.10 mph83%29.89 "Hg10 mi
11:15 AM73 °FBroken clouds.9 mph83%29.89 "Hg10 mi
10:55 AM73 °FMore clouds than sun.10 mph89%29.89 "Hg10 mi
10:35 AM73 °FMostly cloudy.7 mph89%29.89 "Hg10 mi
9:15 AM72 °FLow clouds.5 mph94%29.88 "Hg10 mi
8:55 AM72 °FOvercast.6 mph88%29.87 "Hg10 mi
8:35 AM72 °FMostly cloudy.No wind88%29.86 "Hg8 mi
8:15 AM72 °FPartly sunny.No wind88%29.86 "Hg5 mi
7:55 AM72 °FOvercast.No wind88%29.86 "Hg7 mi
7:35 AM72 °FMostly cloudy.No wind88%29.86 "Hg7 mi
7:15 AM72 °FPartly cloudy.6 mph88%29.86 "Hg8 mi
6:55 AM72 °FOvercast.5 mph88%29.87 "Hg6 mi
6:35 AM72 °FThundershowers. Mostly cloudy.6 mph88%29.88 "Hg8 mi
6:15 AM72 °FOvercast.6 mph88%29.87 "Hg7 mi
5:55 AM72 °FThundershowers. Partly cloudy.6 mph88%29.86 "Hg5 mi
5:35 AM72 °FPassing clouds.5 mph88%29.86 "Hg6 mi
5:15 AM72 °FMostly cloudy.8 mph88%29.86 "Hg5 mi
4:55 AM72 °FMostly cloudy.6 mph88%29.87 "Hg5 mi
4:35 AM72 °FPassing clouds.6 mph88%29.88 "Hg5 mi
4:15 AM72 °FPassing clouds.5 mph88%29.87 "Hg5 mi
3:55 AM72 °FLow clouds.5 mph88%29.87 "Hg5 mi
3:35 AM72 °FMostly cloudy.5 mph88%29.86 "Hg5 mi
3:15 AM72 °FOvercast.No wind88%29.87 "Hg5 mi
2:55 AM72 °FOvercast.5 mph88%29.89 "Hg5 mi
2:35 AM72 °FMostly cloudy.3 mph88%29.90 "Hg5 mi
2:15 AM72 °FOvercast.6 mph88%29.90 "Hg4 mi
1:55 AM72 °FMostly cloudy.3 mph88%29.91 "Hg3 mi
1:35 AM72 °FMostly cloudy.3 mph88%29.91 "Hg4 mi
1:15 AM72 °FMostly cloudy.3 mph88%29.91 "Hg4 mi
12:55 AM72 °FMostly cloudy.5 mph88%29.90 "Hg5 mi
12:35 AM72 °FOvercast.3 mph94%29.91 "Hg3 mi
12:15 AM72 °FPartly cloudy.No wind94%29.92 "Hg2 mi
11:35 PM
Wed, Jul 1
72 °FMostly cloudy.No wind94%29.93 "Hg3 mi
11:15 PM72 °FMostly cloudy.3 mph94%29.92 "Hg3 mi
10:55 PM72 °FPartly cloudy.3 mph88%29.92 "Hg4 mi
10:35 PM72 °FThundershowers. Passing clouds.No wind88%29.91 "Hg5 mi
10:15 PM72 °FOvercast.3 mph88%29.90 "Hg5 mi
9:55 PM72 °FBroken clouds.6 mph88%29.89 "Hg7 mi
9:15 PM72 °FBroken clouds.10 mph88%29.88 "Hg6 mi
8:55 PM72 °FMostly cloudy.7 mph88%29.90 "Hg4 mi
8:35 PM75 °FMostly cloudy.10 mph78%29.90 "Hg9 mi
8:15 PM75 °FCloudy.7 mph78%29.90 "Hg9 mi
7:55 PM77 °FCloudy.5 mph74%29.90 "Hg9 mi
7:35 PM79 °FPartly sunny.3 mph70%29.90 "Hg10 mi
7:15 PM79 °FPartly sunny.5 mph65%29.89 "Hg10 mi
6:55 PM79 °FPartly sunny.No wind65%29.88 "Hg10 mi
6:35 PM81 °FScattered clouds.No wind62%29.87 "Hg10 mi
5:55 PM79 °FScattered clouds.5 mph65%29.88 "Hg9 mi
5:15 PM79 °FBroken clouds.6 mph70%29.89 "Hg10 mi
Weather by CustomWeather, © 2015

See weather overviewHow to use our weather pages